User: anonymous   Login
Location: Vancouver
(49.2500°N, 123.1330°W)
Time: 22:45:53
(UTC-08:00)
Language:

Cosmos 1408 Rocket - Orbit

View from above orbital plane
View from above orbital plane
View from above satellite
View from above satellite

Ground track
Ground track

The orbit data is extracted from the following two-line orbital elements,

1 13553U 82092B   14328.18812340  .00000447  00000-0  51137-4 0   754
2 13553 082.5696 025.9402 0020288 255.0876 164.6124 14.83684097738226
Epoch (UTC): 24 November 2014 04:30:53
Eccentricity: 0.0020288
inclination: 82.5696°
perigee height: 603 km
apogee height: 632 km
right ascension of ascending node: 25.9402°
argument of perigee: 255.0876°
revolutions per day: 14.83684097
mean anomaly at epoch: 164.6124°
orbit number at epoch: 73822

The dashed part of the orbit path shows where the satellite is in the earth's shadow,  

DLR